Location: Borbetomagus
(49.6328°N, 8.3592°E)
Time: 00:59:36
(UTC+00:00)

Cosmos 1743 - Pass Details

Date: 19 May 2025
Orbit: 432 x 442 km, 82.5° (Epoch: 15 June)

Event Time Altitude Azimuth Distance (km) Brightness Sun altitude
Rises 20:13:28 0° 348° (NNW) 2,459 7.2 -8.7°
Reaches altitude 10° 20:15:33 10° 346° (NNW) 1,581 6.2 -9.0°
Maximum altitude 20:18:59 70° 263° (W) 478 2.6 -9.4°
Drops below altitude 10° 20:22:22 10° 179° (S) 1,560 4.7 -9.7°
Enters shadow 20:22:46 - 178° (S) 1,728 4.9 -9.8°
